Cosmos 1470 Rocket - Orbit

View from above orbital plane
View from above orbital plane
View from above satellite
View from above satellite

Ground track
Ground track

The orbit data is extracted from the following two-line orbital elements,

1 14148U 83061B   13138.83976484  .00000442  00000-0  52178-4 0  3374
2 14148 082.5208 224.6654 0022014 198.2573 301.2342 14.82322258613976
Epoch (UTC): 18 May 2013 20:09:15
Eccentricity: 0.0022014
inclination: 82.5208°
perigee height: 606 km
apogee height: 637 km
right ascension of ascending node: 224.6654°
argument of perigee: 198.2573°
revolutions per day: 14.82322258
mean anomaly at epoch: 301.2342°
orbit number at epoch: 61397

The dashed part of the orbit path shows where the satellite is in the earth's shadow,  

Developed and maintained by Chris Peat, Heavens-Above GmbH. Please read the updated FAQ before sending e-mail. Imprint. DLR